Temp
22 23 23 23 23 23 23 23 23 23 22 22 22 22 22 22 21 21 21 21 21 21 21 21 21 21 21 21 20 20 19 19 19 19 19 19 19 19 18 18 19 19
23 23 23 23 23 23 23 23 23 23 23 22 22 22 22 22 21 21 21 21 21 21 21 21 21 21 20 20 20 20 20 19 19 19 19 19 19 19 19 19 19 19
23 23 23 23 23 23 23 23 23 23 23 22 22 22 22 22 21 21 21 21 21 21 21 20 20 20 20 20 20 20 20 19 19 19 19 19 19 19 19 19 19 19
23 23 23 23 23 23 23 23 23 23 23 22 22 22 22 22 21 21 21 21 21 21 21 20 20 20 20 20 20 20 20 19 19 19 19 19 19 19 19 19 19 19
23 23 23 23 23 23 23 23 23 23 23 23 22 22 22 21 21 21 21 21 21 21 21 20 20 20 20 20 20 20 20 19 20 19 19 19 19 19 19 19 19 19
23 23 23 23 23 23 23 23 23 23 23 23 22 22 22 21 21 21 21 21 21 21 21 21 20 20 20 20 20 20 20 19 20 20 19 19 19 19 19 19 19 19
23 23 23 23 23 23 23 23 23 23 23 23 23 22 22 21 21 21 21 21 21 21 21 21 20 20 20 20 20 20 19 19 20 20 20 19 19 19 19 19 19 19
23 23 23 23 23 23 23 23 23 23 23 23 23 22 22 22 21 21 21 21 21 21 21 21 20 20 20 20 20 20 19 19 19 20 20 19 19 19 19 19 19 19
23 24 23 23 23 23 23 23 23 23 23 23 23 22 22 22 22 22 21 22 21 21 21 21 21 20 20 20 20 20 19 19 19 20 20 19 19 19 19 19 19 19
23 23 23 23 23 23 23 23 24 23 23 23 23 23 22 22 22 22 22 22 22 21 21 21 21 21 20 20 20 20 19 19 19 20 20 19 19 19 19 19 19 19
24 23 23 23 23 23 23 23 23 23 23 23 23 23 22 22 22 22 22 22 22 22 22 21 21 21 20 20 20 20 19 20 20 19 19 19 19 19 19 19 19 18
24 23 24 23 23 23 23 23 23 23 23 23 23 23 22 22 22 22 23 23 22 22 22 22 22 21 20 20 20 20 20 20 19 19 19 19 19 19 19 19 19 18
24 23 24 23 23 23 23 23 23 23 23 23 23 23 22 22 22 22 23 23 22 22 22 22 22 21 20 20 20 20 19 19 19 19 19 19 19 19 19 19 18 18
24 24 24 24 24 24 23 23 23 23 23 23 23 23 22 22 22 23 23 22 22 22 22 22 22 22 21 20 20 20 19 19 19 19 19 19 19 19 19 19 18 18
24 24 24 24 24 23 23 23 23 23 23 23 23 23 22 22 23 23 22 22 22 22 22 22 22 22 21 20 20 20 19 19 19 19 19 19 18 19 19 18 18 18
24 24 24 24 24 24 24 23 23 23 23 23 23 23 22 22 23 23 22 22 22 22 22 22 22 22 21 21 20 20 19 19 19 19 19 19 18 18 18 18 18 17
24 24 24 24 24 24 24 23 23 23 23 23 23 23 22 22 23 22 22 22 22 22 22 22 22 22 22 21 20 20 19 19 19 19 19 18 18 18 18 17 17 17
24 24 24 24 24 24 24 23 23 23 23 23 23 23 23 22 22 22 22 22 22 22 22 22 22 22 22 21 20 20 20 19 19 18 18 18 18 18 17 17 17 17
24 23 23 24 24 24 24 23 23 23 23 23 23 23 22 22 22 22 22 22 22 22 22 22 22 22 22 21 21 20 20 19 19 18 18 18 18 18 17 17 17 17
24 23 22 22 23 24 24 23 23 23 23 23 23 22 22 22 22 22 22 22 22 22 22 22 22 22 22 21 21 20 20 19 18 18 17 18 18 18 17 17 17 16
23 23 22 21 22 23 24 23 23 23 23 22 22 22 22 22 22 22 22 22 22 22 22 22 22 22 22 21 21 20 19 19 18 17 17 18 18 17 17 17 17 16
24 23 22 21 21 22 23 24 23 23 23 22 22 22 22 22 22 21 22 22 22 22 22 22 22 22 21 21 21 20 19 19 18 18 17 18 17 17 17 17 16 16
25 24 22 21 21 21 23 24 23 23 23 22 22 22 21 21 21 21 21 22 21 21 21 21 21 21 21 21 20 19 19 18 18 17 17 17 17 17 17 16 16 16
25 24 22 21 20 20 22 24 24 23 23 22 22 22 21 21 21 21 21 21 21 21 21 21 21 20 20 20 20 19 18 18 17 17 17 17 17 17 16 16 16 16
24 24 23 21 20 19 20 23 24 23 23 22 22 21 21 21 21 21 21 21 21 21 21 21 20 19 19 19 19 19 18 18 17 17 17 17 17 17 16 16 16 16
22 22 22 22 20 19 20 22 24 23 23 22 21 21 21 21 21 21 21 21 21 21 21 21 20 19 19 19 19 18 18 18 17 17 17 17 17 16 16 16 16 15
Height
754 758 760 761 763 764 765 767 769 771 773 774 777 778 780 782 785 787 788 790 792 794 796 798 799 801 802 804 805 807 808 810 811 813 814 816 817 818 819 820 822 823
749 752 755 757 759 761 762 764 766 767 769 771 774 776 778 780 782 784 786 787 789 791 793 795 796 798 799 801 803 804 806 808 809 811 812 813 815 816 817 819 820 821
745 747 750 752 754 756 758 761 763 764 766 769 771 773 775 777 779 782 784 785 786 788 790 792 794 795 796 798 800 802 803 805 807 809 810 811 813 814 816 817 818 819
741 743 745 747 750 753 756 758 759 761 763 765 767 770 772 774 777 779 781 783 784 786 787 789 790 792 793 795 797 799 800 803 804 807 808 810 811 812 814 815 816 817
737 739 741 743 746 750 753 754 755 757 759 761 763 766 768 771 773 776 779 780 782 783 784 786 787 789 790 792 794 796 798 800 802 804 806 808 809 810 812 813 814 816
733 735 737 739 742 745 749 750 751 752 755 757 759 762 764 767 770 773 775 777 779 781 782 783 784 786 787 789 791 793 795 797 799 802 804 805 807 808 810 811 812 814
729 731 733 736 738 742 745 747 748 749 751 753 755 757 760 763 766 769 772 774 776 778 779 780 782 783 785 786 788 790 792 794 797 799 801 803 805 806 808 809 810 811
724 726 729 731 734 738 740 743 745 746 748 750 751 752 755 759 762 765 768 771 773 775 776 778 779 781 782 783 784 787 788 791 793 796 798 800 802 804 805 807 808 809
720 722 724 727 730 733 735 738 740 742 744 745 746 748 751 755 758 762 764 767 769 771 773 775 777 778 779 779 781 783 785 787 790 792 795 797 799 801 803 804 805 806
716 718 720 723 726 729 731 733 736 738 740 740 741 744 747 751 755 758 761 763 765 767 770 772 773 774 776 777 778 779 781 784 787 789 791 793 796 798 800 801 802 803
713 714 716 718 721 724 727 729 731 734 735 736 737 740 743 747 751 754 757 758 760 762 765 768 769 771 772 774 775 776 778 781 783 785 788 790 793 795 796 798 799 800
710 710 711 713 716 719 721 724 726 729 731 731 732 735 739 743 746 749 752 754 756 758 761 764 766 767 769 771 772 773 775 778 780 782 785 787 789 792 793 795 796 797
707 707 707 709 711 714 716 719 722 725 726 726 728 731 735 738 742 745 747 749 752 755 758 760 762 764 765 768 769 770 772 774 777 779 782 784 786 788 791 792 794 795
701 703 704 705 706 708 711 714 717 720 721 722 724 727 730 733 736 740 743 746 749 752 754 757 758 759 761 763 765 767 769 771 773 776 778 781 783 786 788 790 791 793
696 698 700 702 703 704 707 710 712 715 717 718 720 722 725 729 732 735 739 742 745 748 750 753 754 755 756 758 760 763 765 768 770 772 774 777 780 782 785 787 789 791
691 692 695 698 700 701 703 705 707 710 712 714 716 718 721 725 728 731 735 738 741 743 746 747 749 750 751 753 756 759 762 765 767 769 772 774 776 778 781 784 786 788
686 688 690 693 695 698 699 701 703 705 707 709 711 713 717 720 724 727 730 733 736 738 741 742 744 745 747 749 753 756 759 762 764 766 769 771 773 774 777 780 784 786
681 683 685 687 690 693 695 696 698 700 702 704 706 708 711 715 718 721 725 728 731 734 736 738 739 741 743 746 749 752 756 758 761 763 766 769 770 771 773 777 781 783
675 677 679 682 685 688 690 692 693 695 696 698 700 703 706 709 713 716 720 723 727 729 731 733 735 737 739 742 745 748 752 755 757 760 763 766 767 767 770 774 778 780
670 672 674 677 681 684 686 687 688 689 691 693 695 698 701 704 708 711 714 718 721 723 726 729 731 733 735 738 741 744 747 751 754 758 761 763 764 764 766 770 774 777
663 666 670 674 679 682 681 681 683 684 685 687 690 692 695 698 701 705 708 712 715 718 722 724 726 728 731 734 737 740 744 747 752 756 759 761 761 761 763 766 770 773
658 661 665 669 674 678 677 676 676 678 679 681 684 687 689 693 696 700 703 707 710 713 717 719 721 723 726 729 733 737 741 745 750 753 756 757 758 759 761 763 766 770
653 656 659 663 669 673 673 671 670 671 673 675 678 681 684 688 691 694 697 701 704 708 711 714 715 718 722 726 730 734 738 743 747 750 752 753 755 757 759 760 763 766
648 651 654 659 664 670 671 666 664 665 666 668 671 674 677 681 684 688 691 695 699 703 706 709 710 713 718 722 726 730 735 740 744 746 748 750 751 754 756 757 760 763
645 646 649 653 658 666 668 663 658 659 660 662 665 668 671 675 679 683 687 690 694 698 702 704 706 709 714 718 722 727 731 736 740 742 743 745 747 749 753 755 757 760
644 645 645 646 649 656 661 658 653 652 654 656 660 664 668 672 676 679 682 685 689 693 697 700 701 705 710 714 718 723 727 732 735 737 738 740 742 745 749 753 755 758
Wind_Speed
36 35 33 32 31 30 31 32 31 31 30 31 31 30 29 30 31 31 29 29 29 28 27 24 24 25 24 22 21 21 21 20 20 20 20 20 20 19 19 19 19 18
37 37 35 32 31 30 31 33 32 31 30 31 31 30 29 29 30 31 30 30 29 29 28 26 25 26 26 24 22 22 22 21 21 21 21 21 21 20 19 18 18 18
36 37 36 34 33 33 32 32 32 31 30 31 30 30 30 30 30 31 31 30 30 29 29 28 26 27 28 26 24 24 23 23 22 22 21 21 20 19 18 17 16 16
36 36 36 35 34 33 32 31 32 32 31 32 32 31 30 30 30 31 31 31 31 30 30 29 28 27 28 27 25 25 24 23 24 22 20 19 19 19 17 16 16 16
38 37 36 36 34 33 33 32 33 34 33 33 33 32 31 31 30 30 31 31 31 31 30 30 29 28 28 28 26 26 25 24 23 22 21 20 19 18 17 17 18 19
37 37 36 35 34 34 34 33 34 35 35 34 33 32 32 32 31 31 31 31 31 31 30 30 30 28 29 28 27 26 26 25 23 22 22 20 19 18 18 18 20 22
36 36 36 36 35 35 35 34 34 35 36 35 34 34 33 32 32 32 31 31 31 31 30 30 30 30 29 30 28 27 27 27 24 22 22 21 19 20 20 20 20 22
37 37 37 37 36 35 35 35 34 35 37 36 34 34 34 33 32 32 32 32 32 32 30 30 30 30 30 31 30 28 27 27 26 24 23 22 21 21 21 21 21 21
37 38 37 37 37 36 36 36 35 35 37 37 35 34 34 34 33 32 33 33 33 33 32 31 31 31 31 31 31 30 29 28 27 26 25 24 22 22 22 22 22 21
37 37 38 38 38 37 37 38 37 36 36 37 36 34 34 35 34 33 33 33 34 35 33 32 32 31 31 31 31 30 30 29 28 27 26 25 24 24 23 22 22 22
36 37 38 39 39 39 39 39 38 36 36 37 36 35 35 35 35 34 34 34 35 35 34 33 33 32 31 31 31 31 31 29 28 27 26 26 26 25 23 22 21 22
36 37 38 40 40 40 40 40 39 37 37 36 36 35 35 35 35 34 34 35 34 34 34 33 32 32 31 32 31 31 31 29 29 29 27 25 26 24 23 22 21 21
36 38 39 40 41 41 41 40 39 38 37 37 36 36 36 36 35 34 34 35 34 33 34 34 33 33 32 32 33 31 32 31 29 30 29 25 25 24 23 22 21 22
37 38 39 40 42 42 40 39 39 38 38 37 36 36 37 38 37 34 33 34 34 34 37 36 34 35 34 34 34 33 32 32 30 30 29 27 25 24 23 22 22 22
36 37 38 39 40 40 39 38 38 38 38 37 37 37 38 38 36 35 33 33 34 35 37 36 34 36 36 35 35 35 33 32 32 31 30 28 27 25 23 21 21 22
34 35 36 37 37 37 38 37 38 38 38 37 37 38 39 38 36 35 34 34 35 35 36 36 36 36 38 38 37 36 33 32 32 31 30 29 27 25 23 21 22 23
33 34 35 36 36 36 37 38 37 37 38 38 38 37 37 38 37 36 36 36 36 35 35 36 37 37 38 40 40 37 35 33 32 32 31 30 28 26 24 22 22 22
32 33 33 34 36 36 37 38 38 37 37 38 38 37 37 38 38 38 37 36 35 35 36 36 36 36 38 40 41 40 38 35 33 32 31 31 30 27 24 23 23 22
34 33 32 32 35 37 38 38 38 38 38 38 38 39 38 38 39 39 37 36 35 36 37 37 36 36 38 41 42 42 41 37 33 32 33 31 29 28 25 24 24 23
37 36 34 32 33 37 38 38 38 38 38 39 39 38 37 37 38 39 38 37 36 36 36 36 36 36 38 41 43 43 42 39 34 32 33 32 29 28 27 25 25 25
39 38 35 34 34 36 38 38 38 38 39 38 38 38 39 40 40 40 40 38 36 37 36 35 36 38 39 41 44 45 44 40 34 32 33 31 29 29 29 28 27 27
38 37 36 36 36 36 38 39 38 39 39 38 38 38 39 39 39 39 39 38 36 37 36 35 36 39 40 42 44 46 46 41 34 31 32 30 28 29 29 28 28 28
35 34 35 37 36 34 36 38 39 39 40 39 38 37 37 38 39 39 40 39 37 36 36 36 35 37 41 43 45 47 47 40 33 31 32 30 28 29 28 28 28 29
35 32 31 33 34 36 38 38 38 38 39 40 39 38 38 40 40 40 40 39 38 37 37 36 34 36 41 44 46 49 48 41 34 32 31 30 28 28 28 27 28 29
33 33 34 33 33 36 40 39 40 39 39 40 40 38 38 39 40 38 37 38 38 38 38 36 34 36 41 45 47 50 50 42 35 33 32 31 29 28 27 26 27 28
22 26 34 39 41 44 45 41 40 40 39 39 39 37 35 35 37 37 36 37 37 37 37 37 36 36 41 45 48 52 52 45 37 35 33 31 29 29 27 26 26 28
Wind_Direction
197 200 200 199 199 196 194 195 195 195 195 194 196 200 200 200 201 203 205 205 206 208 208 208 207 205 205 206 207 209 207 204 204 205 206 210 212 213 216 219 221 225
195 197 199 198 198 198 197 197 196 196 196 196 197 199 200 201 202 204 205 204 205 207 207 207 206 204 204 203 205 208 207 205 205 205 207 211 214 216 222 226 229 231
197 196 197 198 198 200 200 198 196 196 197 197 198 199 200 201 202 204 206 205 204 205 206 206 204 203 202 201 203 205 205 204 205 206 210 215 216 217 220 223 227 232
199 197 196 198 200 201 201 199 196 196 197 198 199 200 200 200 202 204 205 206 206 205 205 204 203 202 201 200 200 201 201 204 207 208 208 211 211 210 213 219 224 227
200 199 198 198 200 202 202 200 197 196 197 198 198 198 199 200 201 202 205 206 207 206 204 203 203 201 199 198 198 199 199 200 205 207 205 204 206 207 214 220 222 223
201 200 199 198 199 201 203 202 198 197 198 198 198 197 197 199 200 202 205 207 207 207 204 203 202 201 199 197 196 197 197 196 198 202 202 203 206 210 217 219 218 218
201 201 201 200 200 201 202 203 201 199 199 198 196 196 197 198 200 202 206 207 207 208 206 203 202 202 199 197 195 194 195 194 195 198 201 204 207 211 217 220 219 217
201 201 202 201 201 202 201 202 203 202 200 197 195 196 197 197 199 202 205 207 206 207 208 205 204 203 200 196 193 192 192 192 195 199 202 205 207 210 216 220 223 224
201 201 202 202 201 202 202 202 204 203 200 196 195 195 196 197 199 204 207 206 204 205 208 207 205 204 201 196 193 192 191 191 195 200 202 205 208 210 214 217 220 227
202 201 201 201 201 203 204 203 204 203 200 196 195 194 195 196 200 207 209 206 203 204 207 208 206 204 201 196 193 192 191 192 196 199 201 204 206 208 213 216 217 221
201 201 199 200 201 203 205 204 203 203 200 197 195 194 195 197 201 208 210 205 203 204 205 207 206 203 199 197 195 193 192 194 197 200 201 204 206 208 212 215 217 218
203 201 199 200 201 203 205 204 203 203 200 196 195 195 195 196 201 208 209 206 205 204 204 207 206 201 199 198 197 195 194 196 198 199 201 203 204 207 212 216 219 218
205 203 201 200 201 203 204 203 202 202 199 196 194 194 195 196 200 206 207 205 206 205 206 209 207 202 200 200 198 197 196 197 198 198 200 203 204 208 213 216 219 217
206 204 204 203 202 203 203 202 201 201 200 197 194 195 197 197 200 204 204 203 205 206 207 210 207 202 201 200 198 198 197 197 198 196 196 200 203 207 212 213 215 215
205 204 205 206 205 204 203 201 200 200 199 197 195 196 198 198 200 202 202 203 206 208 207 208 207 203 201 200 197 196 197 197 197 194 193 196 200 204 208 210 212 212
205 204 205 208 207 205 202 200 199 199 199 197 196 197 198 199 200 200 202 204 207 209 207 207 208 206 203 201 197 195 197 197 196 194 193 195 197 198 201 205 209 210
205 205 206 208 208 206 203 200 199 197 197 198 198 197 197 198 198 198 202 205 207 208 208 207 208 207 204 202 199 197 196 195 194 193 194 196 195 192 194 200 206 206
204 205 208 209 208 207 204 201 199 197 197 197 197 196 195 196 197 198 201 205 207 208 208 209 210 208 204 200 198 197 196 194 193 191 191 195 195 191 191 197 201 202
205 208 212 213 208 206 204 201 198 197 196 196 196 196 195 195 196 198 200 204 207 207 208 210 211 210 206 200 196 195 195 193 192 191 191 193 193 188 187 193 197 198
205 208 212 217 214 207 203 200 198 196 195 196 195 195 194 195 197 198 199 203 206 207 208 209 211 211 207 201 198 196 195 192 190 191 193 194 193 187 185 190 195 196
206 208 208 214 218 212 203 199 197 196 195 195 194 194 194 195 197 198 199 202 205 206 207 208 211 211 207 201 199 197 194 190 189 192 194 194 193 189 187 189 193 195
205 206 205 209 217 216 207 200 198 196 194 193 193 194 195 196 197 198 199 201 204 205 205 207 210 211 206 201 199 196 192 190 190 193 193 191 189 188 188 188 191 194
204 203 201 205 214 221 213 202 197 195 193 193 193 193 194 195 196 197 198 200 202 203 203 205 209 209 204 200 198 195 191 189 190 190 188 187 186 187 188 188 191 195
208 204 202 203 210 222 220 205 196 195 192 191 192 192 194 195 195 196 198 198 201 202 202 204 208 205 199 197 197 195 192 190 190 188 184 183 184 186 188 189 191 195
212 206 205 207 210 223 226 210 196 194 193 191 193 193 194 196 195 195 196 197 200 202 202 203 206 202 196 196 198 197 194 191 189 186 183 183 183 182 185 190 192 194
238 222 210 207 209 217 222 212 198 194 192 190 192 194 193 195 195 195 196 197 199 200 200 201 204 199 194 197 200 198 195 193 190 188 184 181 179 177 181 188 191 193